Location: Breitenfeld
(46.8500°N, 15.6333°E)
Time: 05:29:30
(UTC+00:00)

STARLINK-1243 - Pass Details

Date: 09 April 2020
Orbit: 549 x 550 km, 53.0° (Epoch: 29 May)

Event Time Altitude Azimuth Distance (km) Brightness Sun altitude
Rises 19:24:14 0° 299° (WNW) 2,726 8.9 -17.5°
Reaches altitude 10° 19:26:28 10° 300° (WNW) 1,830 7.6 -17.8°
Maximum altitude 19:30:38 79° 28° (NNE) 566 3.6 -18.4°
Enters shadow 19:31:51 45° 106° (ESE) 760 3.9 -18.5°
